Погода в Калиновке

Россия / Республика Бурятия     51°16′55″N   107°46′43″E
В апреле 2022 года жителям России запретили посещать сайт meteo.paraplan.net по решению Генеральной прокуратуры. Аудитория сайта уменьшилась в 10 раз. Владельцы сайта не видят смысла в поддержке погодного сервера в таких условиях. Сайт будет закрыт в октябре.
темп.,
°C
ветер,
м/с
пор.,
м/с
влажн.,
%
обл.,
%
осадки,
мм/ч
давл.,
гПа
погр.,
м
4 октября, вт
вт423:00−5всв118221 0.0 103810
02:00−5всв118482 0.0 103710
05:00−5ссв0081100 0.0 103610
08:00−4зюз1170100 0.0 103675
11:00+1з2447100 0.0 1033870
14:00+2ссз3547100 0.0 10321266
17:00+2ссз345066 0.1 10311181
20:00−3с22745 0.1 103413
5 октября, ср
ср523:00−4зсз11805 0.0 103410
02:00−5з11855 0.0 103410
05:00−5з118763 0.0 103410
08:00−4зюз118093 0.0 103471
11:00+2зюз355361 0.0 10311071
14:00+4з4542100 0.1 10271781
17:00+4зсз3548100 0.0 10261306
20:00−2с22655 0.0 102814
6 октября, чт
чт623:00−3всв11745 0.0 102710
02:00−4всв11772 0.0 102610
05:00−4всв11815 0.0 102510
08:00−3в1171100 0.0 102433
11:00+2зюз1244100 0.0 1022484
14:00+5сз3536100 0.0 10211294
17:00+3ссз2456100 0.0 1022837
20:00−1с117396 0.0 102410
7 октября, пт
пт723:00−3ссз118142 0.0 102510
02:00−3с2285100 0.0 102515
05:00−3ссз2287100 0.0 102614
08:00−2с2587100 0.0 1026205
11:00+2с5656100 0.0 10261092
14:00+3ссз5744100 0.0 10261615
17:00+1ссз6952100 0.0 10271118
20:00−1ссз3563100 0.0 1030205
8 октября, сб
сб823:00−2сз2276100 0.0 103136
02:00−3сз2283100 0.0 103231
05:00−4сз229066 0.0 103420
08:00−4сз228013 0.0 103677
11:00+2сз35475 0.0 10351124
14:00+4сз44395 0.0 10331462
17:00+3зсз45415 0.0 10321339
20:00−2зюз11574 0.0 103410